星链-5056 (STARLINK-5056 )

导读 | 豆包AI

STARLINK-5056是美国SpaceX公司星链(Starlink)星座的一颗低轨通信卫星,于2022年9月24日发射入轨。星链项目计划打造全球覆盖的低轨卫星互联网,为全球偏远地区提供高速低延迟宽带服务。该卫星采用平板设计,配备氪工质霍尔推进器,具备自主避撞能力,寿命末期会主动离轨再入大气层烧毁,是星链星座规模部署中的一颗量产卫星。

基本信息
目录编号:
53910
目录名称:
STARLINK-5056
国际标识:
2022-119AA
轨道中心:
EARTH
卫星名称:
星链-5056
卫星全名:
星链-5056 (STARLINK-5056 )
卫星状态:
已陨落 最后检测时间 2025-12-31
发射日期:
2022-09-24 UTC
国别 :
美国 (US)
星等 :
--
轨道信息
数据来源 国际轨道数据
星历时间: 2025-12-31T17:30:10+0800
轨道信息已过期74天
半长轴: 6636.86km
偏心率: 0.0114214
轨道倾角: 53.204°
近地点辐角 113.785°
升交点赤经 143.506°
平近点角 247.521°
近地点: 182.92km
远地点: 334.526km
周期: 89.682分钟
每日圈数: 16.056795
详细信息
固有亮度:
5
最大亮度:
2.5
卫星平台:
Starlink v1.5
覆盖范围:
全球
运营商:
太空探索技术公司
运营商所在国:
美国
制造商(研发单位):
太空探索技术公司
制造商所在国:
美国
使用方式:
暂无
卫星简介
星链(Starlink)计划是由太空探索技术公司(SpaceX)提出的一个巨型低轨卫星互联网星座项目,计划在2019年至2024年间在太空搭建由约1.2万颗卫星组成的“星链”网络,其中1584颗将部署在地球上空550千米处的近地轨道,并从2020年开始工作。该卫星仍在工作。